Date String (YYYY-MM-DD hh:mm:ss) UTC,Instrument flags,absolute air pressure of the measurement (hPa),sample flow rate (lpm),inlet stack bypass flow (lpm),air temperature of the measurement (°C),ambient temperature measured by the external sensor (°C),aerosol sample conditioner tube jacket temperature (°C),OPC LED temperature (°C),internal box temperature (°C),relative humidity of the measurement (%),span deviation,mass concentration of particles derived from Lorenz-Mie calculation of OPC scattering (μg/m³),mass concentration of particles derived from Lorenz-Mie calculation of OPC scattering (μg/m³),mass concentration of particles derived from Lorenz-Mie calculation of OPC scattering (μg/m³)
DateTimeUTC,F1_M11,P_M11,Q1_M11,Q2_M11,T1_M11,T2_M11,T3_M11,T4_M11,T5_M11,U1_M11,ZSPAN_M11,X0_M11,X2_M11,X1_M11
2024-02-26 18:00:00,SystemResetWarning,0818.9,5.00,000.00,021.5,020.9,000.0,029.5,023.2,11.5,0000.0,0006.63,0001.49,0000.67
2024-02-26 18:01:00,SystemResetWarning,0818.9,4.99,000.00,021.5,020.9,000.0,029.5,023.2,11.5,0000.0,0006.20,0001.43,0000.66
2024-02-26 18:02:00,SystemResetWarning,0819.0,5.00,000.00,021.5,020.9,000.0,029.5,023.2,11.6,0000.0,0004.24,0001.39,0000.65
2024-02-26 18:03:00,SystemResetWarning,0819.0,5.00,000.00,021.5,020.9,000.0,029.6,023.2,11.7,0000.0,0003.96,0001.39,0000.64
2024-02-26 18:04:00,SystemResetWarning,0819.1,5.01,000.00,021.5,020.9,000.0,029.6,023.2,12.1,0000.0,0004.00,0001.39,0000.64
2024-02-26 18:05:00,SystemResetWarning,0819.0,5.00,000.00,021.5,021.0,000.0,029.6,023.2,12.2,0000.0,0003.97,0001.40,0000.65
2024-02-26 18:06:00,SystemResetWarning,0819.0,4.99,000.00,021.6,021.0,000.0,029.6,023.3,11.8,0000.0,0004.07,0001.44,0000.67
2024-02-26 18:07:00,SystemResetWarning,0819.1,5.00,000.00,021.6,021.0,000.0,029.6,023.3,12.0,0000.0,0004.12,0001.47,0000.67
2024-02-26 18:08:00,SystemResetWarning,0819.0,4.99,000.00,021.6,021.0,000.0,029.6,023.3,12.1,0000.0,0003.99,0001.46,0000.67
2024-02-26 18:09:00,SystemResetWarning,0819.0,4.99,000.00,021.6,021.0,000.0,029.6,023.3,11.9,0000.0,0003.96,0001.47,0000.66
2024-02-26 18:10:00,SystemResetWarning,0819.0,5.00,000.00,021.6,021.0,000.0,029.6,023.3,11.9,0000.0,0004.17,0001.53,0000.66
2024-02-26 18:11:00,SystemResetWarning,0819.0,5.01,000.00,021.6,021.0,000.0,029.6,023.3,12.0,0000.0,0004.35,0001.58,0000.66
2024-02-26 18:12:00,SystemResetWarning,0819.1,5.01,000.00,021.6,021.0,000.0,029.7,023.3,12.0,0000.0,0004.48,0001.63,0000.68
2024-02-26 18:13:00,SystemResetWarning,0819.0,5.00,000.00,021.7,021.0,000.0,029.7,023.3,11.5,0000.0,0004.41,0001.61,0000.68
2024-02-26 18:14:00,SystemResetWarning,0819.1,5.00,000.00,021.7,021.1,000.0,029.7,023.3,11.5,0000.0,0004.04,0001.58,0000.68
2024-02-26 18:15:00,SystemResetWarning,0819.0,4.99,000.00,021.7,021.1,000.0,029.7,023.3,11.5,0000.0,0003.66,0001.62,0000.68
2024-02-26 18:16:00,SystemResetWarning,0819.1,5.01,000.00,021.7,021.1,000.0,029.7,023.4,11.3,0000.0,0003.58,0001.61,0000.67
2024-02-26 18:17:00,SystemResetWarning,0819.0,5.00,000.00,021.7,021.1,000.0,029.7,023.4,11.5,0000.0,0003.65,0001.58,0000.66
2024-02-26 18:18:00,SystemResetWarning,0819.0,4.98,000.00,021.7,021.1,000.0,029.7,023.4,11.5,0000.0,0003.76,0001.57,0000.66
2024-02-26 18:19:00,SystemResetWarning,0819.1,5.01,000.00,021.7,021.1,000.0,029.7,023.4,11.7,0000.0,0004.05,0001.60,0000.67
2024-02-26 18:20:00,SystemResetWarning,0819.1,5.01,000.00,021.7,021.1,000.0,029.7,023.4,11.7,0000.0,0005.02,0001.65,0000.67
2024-02-26 18:21:00,SystemResetWarning,0819.2,4.99,000.00,021.7,021.1,000.0,029.7,023.4,11.7,0000.0,0004.91,0001.64,0000.68
2024-02-26 18:22:00,SystemResetWarning,0819.1,4.99,000.00,021.7,021.1,000.0,029.7,023.4,11.8,0000.0,0004.74,0001.64,0000.68
2024-02-26 18:23:00,SystemResetWarning,0819.0,4.99,000.00,021.8,021.1,000.0,029.8,023.4,11.0,0000.0,0005.41,0001.63,0000.67
2024-02-26 18:24:00,SystemResetWarning,0819.0,4.99,000.00,021.8,021.1,000.0,029.8,023.4,10.6,0000.0,0005.85,0001.60,0000.66
2024-02-26 18:25:00,SystemResetWarning,0819.0,5.00,000.00,021.8,021.2,000.0,029.8,023.5,11.0,0000.0,0006.12,0001.67,0000.67
2024-02-26 18:26:00,SystemResetWarning,0819.0,5.01,000.00,021.8,021.2,000.0,029.8,023.5,11.0,0000.0,0006.01,0001.63,0000.66
2024-02-26 18:27:00,SystemResetWarning,0819.0,5.00,000.00,021.8,021.2,000.0,029.8,023.5,11.0,0000.0,0006.01,0001.65,0000.67
2024-02-26 18:28:00,SystemResetWarning,0819.1,5.00,000.00,021.8,021.2,000.0,029.8,023.5,10.8,0000.0,0006.20,0001.72,0000.68
2024-02-26 18:29:00,SystemResetWarning,0819.0,5.01,000.00,021.8,021.2,000.0,029.8,023.5,10.5,0000.0,0006.23,0001.75,0000.68
2024-02-26 18:30:00,SystemResetWarning,0819.1,5.00,000.00,021.8,021.2,000.0,029.8,023.5,11.0,0000.0,0006.07,0001.75,0000.68
2024-02-26 18:31:00,SystemResetWarning,0819.1,4.99,000.00,021.8,021.2,000.0,029.9,023.5,11.2,0000.0,0005.05,0001.70,0000.69
2024-02-26 18:32:00,SystemResetWarning,0819.0,5.00,000.00,021.9,021.2,000.0,029.9,023.5,11.3,0000.0,0005.69,0001.67,0000.68
2024-02-26 18:33:00,SystemResetWarning,0819.0,5.00,000.00,021.9,021.3,000.0,029.9,023.5,11.0,0000.0,0006.13,0001.66,0000.68
2024-02-26 18:34:00,SystemResetWarning,0819.0,5.00,000.00,021.9,021.3,000.0,029.9,023.5,10.8,0000.0,0006.15,0001.71,0000.69
2024-02-26 18:35:00,SystemResetWarning,0819.0,5.01,000.00,021.9,021.3,000.0,029.9,023.6,10.7,0000.0,0007.05,0001.74,0000.70
2024-02-26 18:36:00,SystemResetWarning,0819.0,5.00,000.00,021.9,021.3,000.0,029.9,023.6,10.8,0000.0,0007.52,0001.72,0000.69
2024-02-26 18:37:00,SystemResetWarning,0819.0,4.98,000.00,021.9,021.3,000.0,029.9,023.6,10.7,0000.0,0007.56,0001.74,0000.69
2024-02-26 18:38:00,SystemResetWarning,0819.0,5.00,000.00,021.9,021.3,000.0,029.9,023.6,10.4,0000.0,0007.65,0001.77,0000.68
2024-02-26 18:39:00,SystemResetWarning,0819.3,5.01,000.00,022.0,021.3,000.0,029.9,023.6,10.3,0000.0,0007.97,0001.77,0000.67
2024-02-26 18:40:00,SystemResetWarning,0818.8,5.01,000.00,022.0,021.4,000.0,030.0,023.6,10.5,0000.0,0008.00,0001.78,0000.67
2024-02-26 18:41:00,SystemResetWarning,0819.0,4.99,000.00,022.0,021.4,000.0,030.0,023.6,10.8,0000.0,0008.02,0001.79,0000.68
2024-02-26 18:42:00,SystemResetWarning,0819.0,4.99,000.00,022.0,021.4,000.0,030.0,023.7,11.2,0000.0,0008.10,0001.83,0000.67
2024-02-26 18:43:00,SystemResetWarning,0819.0,5.01,000.00,022.0,021.4,000.0,030.0,023.7,10.7,0000.0,0007.81,0001.89,0000.67
2024-02-26 18:44:00,SystemResetWarning,0819.0,5.01,000.00,022.0,021.4,000.0,030.0,023.7,10.8,0000.0,0007.67,0001.92,0000.67
2024-02-26 18:45:00,SystemResetWarning,0819.0,5.01,000.00,022.0,021.4,000.0,030.0,023.7,11.0,0000.0,0007.38,0001.91,0000.68
2024-02-26 18:46:00,SystemResetWarning,0818.9,4.99,000.00,022.0,021.4,000.0,030.0,023.7,10.8,0000.0,0006.26,0001.90,0000.67
2024-02-26 18:47:00,SystemResetWarning,0819.0,5.00,000.00,022.0,021.4,000.0,030.0,023.7,10.3,0000.0,0005.74,0001.94,0000.69
2024-02-26 18:48:00,SystemResetWarning,0819.1,5.01,000.00,022.0,021.4,000.0,030.1,023.7,10.1,0000.0,0005.61,0001.91,0000.69
2024-02-26 18:49:00,SystemResetWarning,0818.9,5.00,000.00,022.0,021.4,000.0,030.1,023.7,10.2,0000.0,0005.47,0001.82,0000.70
2024-02-26 18:50:00,SystemResetWarning,0818.9,5.00,000.00,022.1,021.4,000.0,030.1,023.7,10.6,0000.0,0004.79,0001.75,0000.70
2024-02-26 18:51:00,SystemResetWarning,0818.9,5.00,000.00,022.1,021.4,000.0,030.1,023.8,10.6,0000.0,0004.72,0001.71,0000.70
2024-02-26 18:52:00,SystemResetWarning,0818.9,5.00,000.00,022.1,021.5,000.0,030.1,023.8,10.6,0000.0,0004.91,0001.76,0000.70
2024-02-26 18:53:00,SystemResetWarning,0819.3,5.00,000.00,022.1,021.5,000.0,030.1,023.8,10.6,0000.0,0004.90,0001.72,0000.70
2024-02-26 18:54:00,SystemResetWarning,0818.9,5.00,000.00,022.1,021.5,000.0,030.1,023.8,10.8,0000.0,0005.16,0001.64,0000.69
2024-02-26 18:55:00,SystemResetWarning,0819.0,5.00,000.00,022.1,021.5,000.0,030.1,023.8,11.3,0000.0,0005.72,0001.56,0000.68
2024-02-26 18:56:00,SystemResetWarning,0819.0,4.99,000.00,022.1,021.5,000.0,030.2,023.8,11.6,0000.0,0005.38,0001.53,0000.68
2024-02-26 18:57:00,SystemResetWarning,0819.1,5.00,000.00,022.1,021.5,000.0,030.2,023.8,11.6,0000.0,0005.38,0001.54,0000.69
2024-02-26 18:58:00,SystemResetWarning,0818.9,5.00,000.00,022.1,021.5,000.0,030.2,023.8,11.7,0000.0,0005.09,0001.45,0000.68
2024-02-26 18:59:00,SystemResetWarning,0818.8,5.00,000.00,022.2,021.5,000.0,030.2,023.8,11.8,0000.0,0005.16,0001.47,0000.68
